�������l�o���
Date,Time,MP-1(��Sv/h),MP-2(��Sv/h),MP-3(��Sv/h),MP-4(��Sv/h),MP-5(��Sv/h),MP-6(��Sv/h),MP-7(��Sv/h),MP-8(��Sv/h),����,����(m/s),���J
2023/01/02,00:00,0.566,0.820,0.513,1.051,0.727,0.324,0.585,0.557,�k��,5.3,��
2023/01/02,00:10,0.567,0.821,0.513,1.050,0.725,0.323,0.585,0.556,�k��,5.0,��
2023/01/02,00:20,0.568,0.819,0.515,1.049,0.727,0.324,0.585,0.556,���k��,4.4,��
2023/01/02,00:30,0.566,0.818,0.514,1.052,0.723,0.323,0.585,0.556,�k��,4.2,��
2023/01/02,00:40,0.566,0.819,0.515,1.050,0.724,0.323,0.586,0.556,��,4.4,��
2023/01/02,00:50,0.566,0.820,0.513,1.050,0.726,0.325,0.586,0.555,��,4.1,��
2023/01/02,01:00,0.566,0.817,0.516,1.051,0.724,0.324,0.583,0.557,���k��,4.7,��
2023/01/02,01:10,0.567,0.818,0.515,1.049,0.722,0.323,0.583,0.554,���k��,4.9,��
2023/01/02,01:20,0.568,0.819,0.514,1.050,0.724,0.324,0.584,0.556,���k��,7.1,��
2023/01/02,01:30,0.567,0.818,0.514,1.050,0.724,0.322,0.585,0.555,���k��,8.0,��
2023/01/02,01:40,0.565,0.820,0.513,1.049,0.724,0.323,0.585,0.555,���k��,7.2,��
2023/01/02,01:50,0.566,0.819,0.514,1.049,0.724,0.323,0.587,0.555,���k��,8.0,��
2023/01/02,02:00,0.566,0.820,0.514,1.051,0.723,0.324,0.585,0.554,���k��,7.5,��
2023/01/02,02:10,0.565,0.819,0.512,1.051,0.723,0.322,0.585,0.555,�k��,7.7,��
2023/01/02,02:20,0.566,0.821,0.513,1.051,0.723,0.323,0.585,0.556,���k��,7.7,��
2023/01/02,02:30,0.567,0.820,0.513,1.052,0.725,0.324,0.585,0.556,���k��,7.5,��
2023/01/02,02:40,0.566,0.819,0.513,1.052,0.724,0.322,0.586,0.556,�k��,6.9,��
2023/01/02,02:50,0.565,0.821,0.514,1.050,0.726,0.322,0.585,0.557,�k��,7.5,��
2023/01/02,03:00,0.568,0.817,0.513,1.050,0.724,0.323,0.584,0.556,�k��,8.3,��
2023/01/02,03:10,0.565,0.818,0.515,1.050,0.724,0.324,0.585,0.555,���k��,8.0,��
2023/01/02,03:20,0.566,0.822,0.514,1.052,0.724,0.324,0.585,0.556,�k��,5.5,��
2023/01/02,03:30,0.567,0.821,0.515,1.053,0.724,0.322,0.585,0.557,���k��,5.0,��
2023/01/02,03:40,0.566,0.820,0.514,1.052,0.723,0.324,0.586,0.556,�k��,4.9,��
2023/01/02,03:50,0.566,0.819,0.514,1.053,0.726,0.324,0.586,0.556,�k��,6.0,��
2023/01/02,04:00,0.566,0.818,0.516,1.052,0.725,0.324,0.587,0.555,�k��,5.5,��
2023/01/02,04:10,0.566,0.818,0.513,1.054,0.725,0.323,0.585,0.556,���k��,6.0,��
2023/01/02,04:20,0.566,0.820,0.514,1.052,0.722,0.323,0.585,0.557,�k��,5.6,��
2023/01/02,04:30,0.566,0.820,0.514,1.051,0.724,0.323,0.583,0.555,�k��,5.5,��
2023/01/02,04:40,0.566,0.819,0.515,1.051,0.722,0.323,0.586,0.557,���k��,3.4,��
2023/01/02,04:50,0.566,0.819,0.514,1.050,0.723,0.323,0.585,0.558,���k��,2.7,��
2023/01/02,05:00,0.565,0.819,0.514,1.050,0.722,0.323,0.585,0.555,��,2.8,��
2023/01/02,05:10,0.566,0.819,0.512,1.050,0.722,0.322,0.584,0.556,��,3.2,��
2023/01/02,05:20,0.567,0.820,0.513,1.050,0.724,0.323,0.585,0.556,��,3.1,��
2023/01/02,05:30,0.565,0.821,0.513,1.048,0.722,0.322,0.585,0.555,���쐼,3.4,��
2023/01/02,05:40,0.565,0.819,0.512,1.049,0.723,0.323,0.585,0.558,��,3.5,��
2023/01/02,05:50,0.564,0.820,0.513,1.049,0.722,0.322,0.585,0.555,��,3.8,��
2023/01/02,06:00,0.566,0.821,0.515,1.050,0.724,0.323,0.584,0.556,��,3.0,��
2023/01/02,06:10,0.567,0.818,0.515,1.052,0.722,0.321,0.585,0.555,��,1.7,��
2023/01/02,06:20,0.565,0.819,0.512,1.050,0.723,0.324,0.584,0.556,���k��,2.1,��
2023/01/02,06:30,0.565,0.819,0.514,1.050,0.722,0.323,0.584,0.558,��,1.2,��
2023/01/02,06:40,0.565,0.820,0.513,1.049,0.725,0.322,0.584,0.556,��,1.2,��
2023/01/02,06:50,0.565,0.818,0.514,1.050,0.724,0.322,0.582,0.555,���k��,0.7,��
2023/01/02,07:00,0.564,0.819,0.514,1.048,0.722,0.322,0.582,0.555,-,CALM,��
2023/01/02,07:10,0.564,0.821,0.513,1.049,0.724,0.321,0.584,0.554,-,CALM,��
2023/01/02,07:20,0.564,0.818,0.513,1.048,0.721,0.322,0.583,0.555,��쐼,0.7,��
2023/01/02,07:30,0.565,0.820,0.514,1.052,0.722,0.324,0.583,0.557,��,1.3,��
2023/01/02,07:40,0.566,0.820,0.511,1.052,0.723,0.323,0.584,0.555,��,1.5,��
2023/01/02,07:50,0.567,0.820,0.514,1.052,0.722,0.322,0.583,0.555,��,1.9,��
2023/01/02,08:00,0.567,0.820,0.514,1.049,0.724,0.323,0.586,0.556,�k��,1.1,��
2023/01/02,08:10,0.566,0.821,0.513,1.050,0.723,0.324,0.584,0.555,�k�k��,2.0,��
2023/01/02,08:20,0.565,0.818,0.513,1.052,0.722,0.324,0.584,0.556,�k�k��,1.8,��
2023/01/02,08:30,0.566,0.818,0.514,1.051,0.723,0.321,0.584,0.556,�k�k��,1.8,��
2023/01/02,08:40,0.567,0.821,0.513,1.052,0.723,0.323,0.583,0.557,�k��,1.6,��
2023/01/02,08:50,0.565,0.820,0.513,1.052,0.725,0.322,0.586,0.556,�k,1.5,��
2023/01/02,09:00,0.568,0.820,0.515,1.052,0.723,0.323,0.586,0.556,�k��,1.7,��
2023/01/02,09:10,0.567,0.820,0.514,1.049,0.723,0.323,0.583,0.556,�k�k��,3.0,��
2023/01/02,09:20,0.567,0.821,0.514,1.052,0.722,0.322,0.585,0.556,�k��,2.7,��
2023/01/02,09:30,0.567,0.823,0.514,1.050,0.724,0.323,0.585,0.557,�k��,2.4,��
2023/01/02,09:40,0.567,0.820,0.514,1.050,0.725,0.322,0.586,0.555,���k��,1.9,��
2023/01/02,09:50,0.567,0.820,0.514,1.053,0.723,0.322,0.585,0.555,�k�k��,1.2,��
2023/01/02,10:00,0.566,0.819,0.515,1.050,0.726,0.324,0.584,0.556,�k,1.4,��
2023/01/02,10:10,0.566,0.820,0.515,1.052,0.725,0.323,0.583,0.557,�k��,2.3,��
2023/01/02,10:20,0.567,0.819,0.513,1.053,0.726,0.325,0.583,0.555,�k��,2.5,��
2023/01/02,10:30,0.567,0.818,0.515,1.051,0.725,0.325,0.584,0.556,�k��,2.4,��
2023/01/02,10:40,0.567,0.820,0.513,1.051,0.726,0.324,0.585,0.556,�k�k��,1.9,��
2023/01/02,10:50,0.567,0.818,0.514,1.053,0.726,0.324,0.583,0.556,���k��,2.4,��
2023/01/02,11:00,0.568,0.820,0.513,1.052,0.727,0.325,0.584,0.557,���k��,1.9,��
2023/01/02,11:10,0.566,0.819,0.515,1.052,0.727,0.324,0.583,0.556,�k��,4.4,��
2023/01/02,11:20,0.566,0.819,0.514,1.054,0.726,0.324,0.583,0.557,�k��,2.9,��
2023/01/02,11:30,0.569,0.818,0.514,1.053,0.727,0.324,0.584,0.555,�k��,2.8,��
2023/01/02,11:40,0.569,0.819,0.515,1.053,0.727,0.323,0.583,0.556,�k��,3.4,��
2023/01/02,11:50,0.567,0.819,0.517,1.052,0.727,0.324,0.583,0.556,�k�k��,3.9,��
2023/01/02,12:00,0.567,0.818,0.516,1.053,0.726,0.324,0.583,0.557,�k�k��,3.3,��
2023/01/02,12:10,0.567,0.819,0.515,1.054,0.725,0.325,0.585,0.556,�k�k��,4.1,��
2023/01/02,12:20,0.567,0.821,0.515,1.052,0.727,0.324,0.585,0.557,�k�k��,3.1,��
2023/01/02,12:30,0.567,0.821,0.514,1.053,0.725,0.324,0.585,0.556,�k�k��,2.2,��
2023/01/02,12:40,0.568,0.821,0.515,1.051,0.727,0.325,0.583,0.555,�k,2.2,��
2023/01/02,12:50,0.569,0.822,0.516,1.052,0.725,0.325,0.584,0.557,�k,4.4,��
2023/01/02,13:00,0.568,0.823,0.515,1.052,0.727,0.323,0.586,0.556,�k,4.1,��
2023/01/02,13:10,0.569,0.822,0.515,1.053,0.726,0.324,0.586,0.555,�k,4.6,��
2023/01/02,13:20,0.569,0.823,0.515,1.053,0.726,0.323,0.585,0.557,�k�k��,4.5,��
2023/01/02,13:30,0.569,0.821,0.515,1.051,0.726,0.324,0.584,0.557,�k,4.9,��
2023/01/02,13:40,0.568,0.821,0.516,1.053,0.727,0.323,0.584,0.558,�k�k��,5.3,��
2023/01/02,13:50,0.569,0.821,0.515,1.054,0.729,0.325,0.587,0.555,�k�k��,5.3,��
2023/01/02,14:00,0.569,0.823,0.516,1.054,0.727,0.324,0.584,0.554,�k�k��,5.5,��
2023/01/02,14:10,0.568,0.822,0.515,1.055,0.728,0.326,0.585,0.554,�k�k��,6.9,��
2023/01/02,14:20,0.568,0.820,0.515,1.052,0.729,0.324,0.584,0.557,�k��,5.5,�L
2023/01/02,14:30,0.568,0.824,0.515,1.050,0.728,0.325,0.585,0.553,�k��,6.0,�L
2023/01/02,14:40,0.568,0.823,0.516,1.053,0.729,0.324,0.583,0.555,�k�k��,4.4,��
2023/01/02,14:50,0.570,0.822,0.515,1.055,0.725,0.324,0.584,0.556,�k�k��,5.8,��
2023/01/02,15:00,0.567,0.823,0.515,1.053,0.729,0.324,0.584,0.555,�k�k��,5.5,�L
2023/01/02,15:10,0.568,0.822,0.516,1.053,0.729,0.324,0.584,0.555,�k�k��,5.8,�L
2023/01/02,15:20,0.568,0.824,0.515,1.054,0.726,0.325,0.584,0.557,�k��,4.7,��
2023/01/02,15:30,0.567,0.822,0.516,1.053,0.727,0.323,0.585,0.556,�k��,4.7,��
2023/01/02,15:40,0.568,0.821,0.515,1.052,0.728,0.324,0.586,0.557,�k�k��,3.6,��
2023/01/02,15:50,0.568,0.823,0.515,1.054,0.728,0.324,0.585,0.556,���k��,1.5,��
2023/01/02,16:00,0.567,0.821,0.516,1.054,0.725,0.325,0.586,0.556,�k�k��,2.4,��
2023/01/02,16:10,0.567,0.821,0.514,1.054,0.727,0.323,0.588,0.556,�k�k��,2.1,��
2023/01/02,16:20,0.567,0.823,0.516,1.051,0.727,0.324,0.585,0.556,�k�k��,0.8,��
2023/01/02,16:30,0.567,0.821,0.514,1.051,0.726,0.324,0.584,0.555,�k��,0.9,��
2023/01/02,16:40,0.566,0.822,0.516,1.054,0.727,0.324,0.586,0.556,�k�k��,1.7,��
2023/01/02,16:50,0.567,0.823,0.515,1.053,0.727,0.323,0.587,0.556,�k��,1.1,��
2023/01/02,17:00,0.566,0.821,0.515,1.054,0.727,0.322,0.585,0.556,�k��,1.4,��
2023/01/02,17:10,0.566,0.820,0.513,1.053,0.725,0.322,0.586,0.555,�k��,2.2,��
2023/01/02,17:20,0.566,0.823,0.512,1.054,0.727,0.323,0.586,0.554,�k��,1.9,��
2023/01/02,17:30,0.566,0.823,0.515,1.054,0.727,0.323,0.586,0.556,�k��,3.5,��
2023/01/02,17:40,0.567,0.822,0.515,1.054,0.725,0.322,0.585,0.556,�k��,3.1,��
2023/01/02,17:50,0.566,0.820,0.513,1.049,0.727,0.323,0.585,0.555,���k��,3.8,��
2023/01/02,18:00,0.564,0.822,0.514,1.052,0.725,0.322,0.585,0.555,���k��,3.1,��
2023/01/02,18:10,0.566,0.821,0.513,1.051,0.725,0.323,0.584,0.555,���k��,3.2,��
2023/01/02,18:20,0.566,0.820,0.513,1.051,0.727,0.324,0.584,0.553,���k��,2.5,��
2023/01/02,18:30,0.565,0.821,0.514,1.050,0.725,0.323,0.585,0.554,���k��,2.7,��
2023/01/02,18:40,0.565,0.822,0.513,1.052,0.727,0.323,0.585,0.556,��,3.2,��
2023/01/02,18:50,0.564,0.821,0.515,1.052,0.725,0.323,0.585,0.555,���k��,3.0,��
2023/01/02,19:00,0.566,0.820,0.513,1.053,0.726,0.323,0.584,0.557,���k��,3.2,��
2023/01/02,19:10,0.565,0.820,0.513,1.051,0.726,0.324,0.583,0.555,�k��,2.4,��
2023/01/02,19:20,0.565,0.819,0.514,1.051,0.726,0.321,0.585,0.555,�k,2.7,��
2023/01/02,19:30,0.563,0.821,0.514,1.053,0.724,0.322,0.583,0.556,�k,2.0,��
2023/01/02,19:40,0.566,0.822,0.514,1.051,0.724,0.323,0.583,0.555,�k�k��,1.5,��
2023/01/02,19:50,0.566,0.820,0.515,1.051,0.727,0.321,0.582,0.554,�k,2.1,��
2023/01/02,20:00,0.566,0.821,0.514,1.049,0.725,0.323,0.582,0.556,�k,1.7,��
2023/01/02,20:10,0.566,0.820,0.513,1.052,0.726,0.323,0.585,0.555,�k,1.8,��
2023/01/02,20:20,0.564,0.821,0.513,1.051,0.724,0.323,0.583,0.554,�k,1.8,��
2023/01/02,20:30,0.567,0.820,0.513,1.051,0.725,0.323,0.585,0.554,�k�k��,4.1,��
2023/01/02,20:40,0.565,0.821,0.514,1.050,0.725,0.321,0.583,0.556,�k�k��,3.1,��
2023/01/02,20:50,0.564,0.821,0.514,1.052,0.725,0.322,0.586,0.556,�k�k��,3.2,��
2023/01/02,21:00,0.566,0.821,0.514,1.050,0.727,0.323,0.585,0.557,�k�k��,2.7,��
2023/01/02,21:10,0.566,0.820,0.512,1.052,0.727,0.322,0.584,0.555,�k�k��,2.4,��
2023/01/02,21:20,0.566,0.820,0.514,1.050,0.726,0.322,0.583,0.555,�k�k��,3.8,��
2023/01/02,21:30,0.565,0.822,0.513,1.053,0.725,0.324,0.585,0.554,�k�k��,3.9,��
2023/01/02,21:40,0.567,0.820,0.513,1.051,0.727,0.323,0.585,0.557,�k�k��,3.4,��
2023/01/02,21:50,0.566,0.820,0.512,1.053,0.725,0.323,0.582,0.555,�k�k��,2.4,��
2023/01/02,22:00,0.565,0.820,0.515,1.051,0.725,0.323,0.582,0.554,�k��,1.7,��
2023/01/02,22:10,0.565,0.819,0.515,1.053,0.726,0.322,0.583,0.556,�k�k��,2.1,��
2023/01/02,22:20,0.565,0.821,0.513,1.050,0.725,0.324,0.583,0.555,�k�k��,3.3,��
2023/01/02,22:30,0.567,0.820,0.513,1.051,0.726,0.322,0.584,0.555,�k�k��,2.8,��
2023/01/02,22:40,0.565,0.821,0.512,1.051,0.726,0.323,0.584,0.556,�k,2.2,��
2023/01/02,22:50,0.564,0.821,0.514,1.051,0.725,0.323,0.584,0.553,�k,2.0,��
2023/01/02,23:00,0.564,0.819,0.513,1.052,0.725,0.323,0.585,0.555,�k,1.3,��
2023/01/02,23:10,0.565,0.821,0.511,1.051,0.725,0.322,0.583,0.556,�k��,1.5,��
2023/01/02,23:20,0.566,0.822,0.512,1.050,0.724,0.323,0.584,0.555,�k�k��,1.4,��
2023/01/02,23:30,0.564,0.820,0.513,1.052,0.726,0.322,0.583,0.555,-,CALM,��
2023/01/02,23:40,0.566,0.818,0.513,1.051,0.726,0.322,0.583,0.555,���k��,0.7,��
2023/01/02,23:50,0.566,0.820,0.513,1.051,0.724,0.323,0.583,0.554,���쐼,1.0,��
